DW3089 Kuortane FI current weather conditions

sailwx.info

Wind from 059 at 2 knots gusting 8

Air temperature 3.9° C
Dewpoint 2.4° C

Last reported at 2019-Oct-16 20:05 UTC.
Time now 2019-Oct-16 20:31 UTC

Location: N 62°48' E 023°31'.
View on Google Maps.

See reports from other nearby stations

  
Tides and Currents Weather Stations Pressure Air Temp Water Temp Dewpoint Dewpoint Depression Visibility Wind Speed Wind Dir Waves Ship Positions
date/time (UTC)wind fromknots sea level pressurealtimeterstation pressurevisibilityair tempwater tempwave heightnotes
2019-Oct-16 20:05 059 2 gusting 8 3.9
2019-Oct-16 20:00 080 1 gusting 8 3.9
2019-Oct-16 19:55 051 3 gusting 10 3.9
2019-Oct-16 19:49 111 4 gusting 10 3.9
2019-Oct-16 19:45 106 3 gusting 8 3.9
2019-Oct-16 19:40 078 3 gusting 8 3.9
2019-Oct-16 19:34 047 2 gusting 8 3.9
2019-Oct-16 19:30 107 4 gusting 8 3.9
2019-Oct-16 19:25 069 2 gusting 8 3.9
2019-Oct-16 19:19 103 3 gusting 9 3.9
2019-Oct-16 19:15 090 4 gusting 8 3.9
2019-Oct-16 19:10 090 1 gusting 6 3.9
2019-Oct-16 19:04 095 2 gusting 7 3.9
2019-Oct-16 18:59 109 2 gusting 7 3.9
2019-Oct-16 18:55 128 1 gusting 6 3.9
2019-Oct-16 18:50 075 2 gusting 9 3.9
2019-Oct-16 18:44 140 4 gusting 9 3.9
2019-Oct-16 18:40 076 2 gusting 8 3.9
2019-Oct-16 18:35 107 2 gusting 7 3.9
2019-Oct-16 18:29 095 2 gusting 7 3.9
2019-Oct-16 18:25 102 1 gusting 5 3.9
2019-Oct-16 18:20 028 1 gusting 7 3.9
2019-Oct-16 18:14 095 2 gusting 9 3.9
2019-Oct-16 18:10 080 2 gusting 9 3.9
2019-Oct-16 18:05 055 3 gusting 6 3.9
2019-Oct-16 18:00 068 3 gusting 6 3.9
2019-Oct-16 17:55 068 2 gusting 6 3.9
2019-Oct-16 17:50 080 3.9
2019-Oct-16 17:44 355 3 gusting 8 3.9
2019-Oct-16 17:40 053 0 gusting 6 3.9
2019-Oct-16 17:35 077 3 gusting 6 3.9
2019-Oct-16 17:30 061 1 gusting 8 3.9
2019-Oct-16 17:25 024 2 gusting 8 3.9
2019-Oct-16 17:20 068 1 gusting 9 3.9
2019-Oct-16 17:15 051 0 gusting 9 3.9
2019-Oct-16 17:09 090 1 gusting 7 3.9
2019-Oct-16 17:05 031 0 gusting 5 3.9
2019-Oct-16 17:00 042 3.9
2019-Oct-16 16:55 053 3.9
2019-Oct-16 16:49 050 0 gusting 6 3.9
2019-Oct-16 16:45 043 0 gusting 4 3.9
2019-Oct-16 16:39 114 0 gusting 6 3.9
2019-Oct-16 16:35 120 0 gusting 5 3.9
2019-Oct-16 16:30 105 0 gusting 5 3.9
2019-Oct-16 16:25 072 2 gusting 7 3.9
2019-Oct-16 16:20 103 1 gusting 7 3.9
2019-Oct-16 16:15 105 1 gusting 6 4.4
2019-Oct-16 16:10 114 2 gusting 7 4.4
2019-Oct-16 16:04 095 3 gusting 8 4.4
2019-Oct-16 16:00 090 1 gusting 8 4.4
2019-Oct-16 15:55 080 3 gusting 8 4.4
2019-Oct-16 15:50 090 0 gusting 5 4.4
2019-Oct-16 15:44 095 0 gusting 5 4.4
2019-Oct-16 15:40 149 1 gusting 5 4.4
2019-Oct-16 15:35 095 2 gusting 7 4.4
2019-Oct-16 15:29 090 1 gusting 8 4.4
2019-Oct-16 15:25 055 3 gusting 8 4.4
2019-Oct-16 15:20 064 1 gusting 7 4.4
2019-Oct-16 15:09 066 1 gusting 5 4.4
2019-Oct-16 15:05 059 1 gusting 4 4.4
2019-Oct-16 14:59 075 0 gusting 5 4.4
2019-Oct-16 14:55 085 1 gusting 5 4.4
2019-Oct-16 14:50 090 4.4
2019-Oct-16 14:45 067 1 gusting 7 4.4
2019-Oct-16 14:40 102 4 gusting 7 4.4
2019-Oct-16 14:35 085 4.4
2019-Oct-16 14:30 103 3 gusting 8 4.4
2019-Oct-16 14:25 078 3 gusting 8 4.4
2019-Oct-16 14:20 066 4 gusting 9 4.4
2019-Oct-16 14:15 072 2 gusting 9 4.4
2019-Oct-16 14:10 105 4 gusting 8 4.4
2019-Oct-16 14:05 041 3 gusting 7 4.4
2019-Oct-16 14:00 095 0 gusting 7 4.4
2019-Oct-16 13:54 090 1 gusting 9 4.4
2019-Oct-16 13:50 114 4 gusting 9 5.0
2019-Oct-16 13:45 100 0 gusting 5 5.0
2019-Oct-16 13:40 095 5.0
2019-Oct-16 13:35 077 2 gusting 7 5.0
2019-Oct-16 13:30 078 3 gusting 7 5.0
2019-Oct-16 13:25 061 0 gusting 7 5.0
2019-Oct-16 13:20 118 4.4
2019-Oct-16 13:15 063 1 gusting 7 4.4
2019-Oct-16 13:10 095 3 gusting 7 4.4
2019-Oct-16 13:04 114 1 gusting 6 4.4
2019-Oct-16 13:00 130 1 gusting 5 4.4
2019-Oct-16 12:55 115 1 gusting 7 4.4
2019-Oct-16 12:49 112 2 gusting 8 4.4
2019-Oct-16 12:45 104 1 gusting 9 4.4
2019-Oct-16 12:40 085 5 gusting 9 4.4
2019-Oct-16 12:34 090 3 gusting 9 4.4
2019-Oct-16 12:30 107 4 gusting 7 4.4
2019-Oct-16 12:25 111 1 gusting 5 4.4
2019-Oct-16 12:19 099 1 gusting 8 4.4
2019-Oct-16 12:15 124 4 gusting 8 4.4
2019-Oct-16 12:10 147 1 gusting 7 4.4
2019-Oct-16 12:04 141 1 gusting 6 4.4
2019-Oct-16 11:59 129 0 gusting 6 4.4
2019-Oct-16 11:55 085 3 gusting 9 4.4
2019-Oct-16 11:44 114 4 gusting 9 4.4
2019-Oct-16 11:40 085 4 gusting 9 4.4
2019-Oct-16 11:35 090 2 gusting 7 4.4
2019-Oct-16 11:30 116 2 gusting 6 4.4
2019-Oct-16 11:25 095 1 gusting 6 4.4
2019-Oct-16 11:20 078 2 gusting 7 4.4
2019-Oct-16 11:15 123 3 gusting 7 4.4
2019-Oct-16 11:10 095 4 gusting 7 4.4
2019-Oct-16 11:04 114 0 gusting 5 4.4
2019-Oct-16 11:00 103 4.4
2019-Oct-16 10:55 066 1 gusting 7 4.4
2019-Oct-16 10:50 109 1 gusting 6 4.4
2019-Oct-16 10:44 120 3 gusting 8 4.4
2019-Oct-16 10:40 103 0 gusting 8 4.4
2019-Oct-16 10:35 095 3 gusting 8 4.4
2019-Oct-16 10:30 122 1 gusting 7 4.4
2019-Oct-16 10:25 085 2 gusting 7 4.4
2019-Oct-16 10:20 101 3 gusting 7 4.4
2019-Oct-16 10:14 116 1 gusting 7 4.4
2019-Oct-16 10:10 081 3 gusting 7 4.4
2019-Oct-16 10:05 116 1 gusting 5 4.4
2019-Oct-16 10:00 135 0 gusting 6 4.4
2019-Oct-16 09:54 136 1 gusting 6 4.4
2019-Oct-16 09:50 076 2 gusting 6 4.4
2019-Oct-16 09:45 135 4.4
2019-Oct-16 09:40 111 0 gusting 7 4.4
2019-Oct-16 09:35 095 1 gusting 7 4.4
2019-Oct-16 09:30 129 3 gusting 7 4.4
2019-Oct-16 09:24 134 3 gusting 8 3.9
2019-Oct-16 09:20 112 2 gusting 8 3.9
2019-Oct-16 09:15 077 3 gusting 8 3.9
2019-Oct-16 09:10 134 2 gusting 5 3.9
2019-Oct-16 09:05 114 1 gusting 6 3.9
2019-Oct-16 09:00 085 0 gusting 5 3.9
2019-Oct-16 08:50 116 2 gusting 5 3.9
2019-Oct-16 08:45 090 0 gusting 5 3.9
2019-Oct-16 08:40 095 2 gusting 4 3.9
2019-Oct-16 08:34 085 0 gusting 5 3.9
2019-Oct-16 08:30 109 2 gusting 5 3.9
2019-Oct-16 08:25 120 1 gusting 5 3.9
2019-Oct-16 08:19 095 1 gusting 5 3.9
2019-Oct-16 08:15 095 0 gusting 5 3.9
2019-Oct-16 08:10 085 2 gusting 4 3.9
2019-Oct-16 08:05 121 3.9
2019-Oct-16 08:00 121 0 gusting 3 3.9
2019-Oct-16 07:55 121 0 gusting 4 3.9
2019-Oct-16 07:50 122 1 gusting 5 3.9
2019-Oct-16 07:45 116 1 gusting 4 3.9
2019-Oct-16 07:40 124 1 gusting 6 3.9
2019-Oct-16 07:35 115 2 gusting 6 3.9
2019-Oct-16 07:30 120 1 gusting 6 3.9
2019-Oct-16 07:25 118 1 gusting 6 3.9
2019-Oct-16 07:20 113 0 gusting 6 3.9
2019-Oct-16 07:14 128 2 gusting 5 3.9
2019-Oct-16 07:10 095 2 gusting 4 3.9
2019-Oct-16 07:00 105 1 gusting 4 3.9
2019-Oct-16 06:55 103 1 gusting 4 3.9
2019-Oct-16 06:50 100 3.9
2019-Oct-16 06:45 100 0 gusting 6 3.9
2019-Oct-16 06:39 100 1 gusting 6 3.3
2019-Oct-16 06:35 100 3.3
2019-Oct-16 06:30 099 2 gusting 5 3.3
2019-Oct-16 06:24 100 0 gusting 5 3.3
2019-Oct-16 06:20 099 0 gusting 5 3.3
2019-Oct-16 06:15 101 2 gusting 5 3.3
2019-Oct-16 06:09 103 0 gusting 4 3.3
2019-Oct-16 06:05 102 1 gusting 3 3.3
2019-Oct-16 06:00 103 3.3
2019-Oct-16 05:55 103 0 gusting 4 3.3
2019-Oct-16 05:50 103 3.3
2019-Oct-16 05:45 103 1 gusting 4 3.3
2019-Oct-16 05:40 105 0 gusting 2 3.3
2019-Oct-16 05:34 105 3.3
2019-Oct-16 05:30 104 0 gusting 3 3.3
2019-Oct-16 05:25 105 1 gusting 3 3.3
2019-Oct-16 05:19 105 0 gusting 2 3.3
2019-Oct-16 05:15 105 3.3
2019-Oct-16 05:10 105 0 gusting 2 3.3
2019-Oct-16 05:04 105 0 gusting 2 3.3
2019-Oct-16 04:59 105 3.3
2019-Oct-16 04:55 104 0 gusting 4 3.3
2019-Oct-16 04:49 106 1 gusting 3 3.3
2019-Oct-16 04:45 106 3.3
2019-Oct-16 04:40 108 0 gusting 3 3.3
2019-Oct-16 04:35 109 3.3
2019-Oct-16 04:30 114 0 gusting 2 3.3
2019-Oct-16 04:25 116 3.3
2019-Oct-16 04:20 120 1 gusting 5 3.3
2019-Oct-16 04:14 116 2 gusting 6 3.3
2019-Oct-16 04:10 120 1 gusting 6 3.3
2019-Oct-16 04:05 105 1 gusting 6 3.3
2019-Oct-16 04:00 121 1 gusting 4 3.3
2019-Oct-16 03:54 122 0 gusting 4 3.3
2019-Oct-16 03:50 122 3.3
2019-Oct-16 03:45 128 0 gusting 4 3.3
2019-Oct-16 03:40 129 3.3
2019-Oct-16 03:35 130 1 gusting 5 3.3
2019-Oct-16 03:30 136 3.3
2019-Oct-16 03:25 144 3.3
2019-Oct-16 03:20 144 3.3
2019-Oct-16 03:15 144 0 gusting 2 3.3
2019-Oct-16 03:10 144 3.3
2019-Oct-16 03:05 144 3.3
2019-Oct-16 03:00 146 3.3
2019-Oct-16 02:54 146 3.3
2019-Oct-16 02:50 146 3.3
2019-Oct-16 02:45 146 1 gusting 2 3.3
2019-Oct-16 02:40 146 0 gusting 2 3.3
2019-Oct-16 02:35 147 3.3
2019-Oct-16 02:30 148 3.3
2019-Oct-16 02:25 148 3.3
2019-Oct-16 02:20 148 3.3
2019-Oct-16 02:15 148 3.3
2019-Oct-16 02:09 148 0 gusting 3 3.3
2019-Oct-16 02:05 148 0 gusting 4 3.3
2019-Oct-16 02:00 148 2 gusting 4 3.3
2019-Oct-16 01:55 149 1 gusting 4 3.3
2019-Oct-16 01:49 149 3.3
2019-Oct-16 01:45 149 1 gusting 3 3.3
2019-Oct-16 01:40 149 0 gusting 4 3.3
2019-Oct-16 01:35 149 0 gusting 4 3.3
2019-Oct-16 01:30 149 0 gusting 4 3.3
2019-Oct-16 01:25 151 1 gusting 5 3.3
2019-Oct-16 01:20 151 0 gusting 5 3.3
2019-Oct-16 01:15 150 2 gusting 5 3.3
2019-Oct-16 01:10 153 0 gusting 3 3.3
2019-Oct-16 01:04 153 3.3
2019-Oct-16 00:59 153 0 gusting 3 3.3
2019-Oct-16 00:55 153 0 gusting 3 3.3
2019-Oct-16 00:50 153 0 gusting 2 3.3
2019-Oct-16 00:44 153 3.3
2019-Oct-16 00:40 153 3.3
2019-Oct-16 00:35 153 3.3
2019-Oct-16 00:20 153 3.3
2019-Oct-16 00:15 153 3.3
2019-Oct-16 00:09 153 3.3
2019-Oct-16 00:05 153 3.3
2019-Oct-16 00:00 153 3.3
2019-Oct-15 23:55 153 3.3
2019-Oct-15 23:49 153 0 gusting 1 3.3
2019-Oct-15 23:45 153 3.9
2019-Oct-15 23:40 153 3.9
2019-Oct-15 23:34 153 3.9
2019-Oct-15 23:30 153 0 gusting 4 3.9
2019-Oct-15 23:25 153 1 gusting 4 3.9
2019-Oct-15 23:20 153 2 gusting 4 3.9
2019-Oct-15 23:15 153 0 gusting 4 3.9
2019-Oct-15 23:10 154 2 gusting 5 3.9
2019-Oct-15 23:05 155 2 gusting 5 3.9
2019-Oct-15 23:00 156 1 gusting 4 3.9
2019-Oct-15 22:55 156 2 gusting 4 3.9
2019-Oct-15 22:50 157 1 gusting 5 3.9
2019-Oct-15 22:40 153 3 gusting 5 3.9
2019-Oct-15 22:35 146 3 gusting 7 3.9
2019-Oct-15 22:30 162 2 gusting 7 3.9
2019-Oct-15 22:25 150 3 gusting 7 3.9
2019-Oct-15 22:20 160 2 gusting 5 3.9
2019-Oct-15 22:15 151 2 gusting 7 3.9
2019-Oct-15 22:10 149 2 gusting 7 3.9
2019-Oct-15 22:05 153 0 gusting 6 3.9
2019-Oct-15 22:00 154 2 gusting 6 3.9
2019-Oct-15 21:55 160 0 gusting 5 3.9
2019-Oct-15 21:50 153 1 gusting 5 3.9
2019-Oct-15 21:45 152 3 gusting 5 3.9
2019-Oct-15 21:39 153 3 gusting 5 3.9
2019-Oct-15 21:35 155 0 gusting 4 3.9
2019-Oct-15 21:30 156 2 gusting 4 3.9
2019-Oct-15 21:25 159 1 gusting 6 3.9
2019-Oct-15 21:20 154 2 gusting 6 3.9
2019-Oct-15 21:15 151 1 gusting 6 3.9
2019-Oct-15 21:09 160 1 gusting 6 3.9
2019-Oct-15 21:05 153 4 gusting 6 3.9
2019-Oct-15 21:00 155 2 gusting 6 3.9
2019-Oct-15 20:55 157 2 gusting 7 3.9
2019-Oct-15 20:50 157 4 gusting 7 3.9
2019-Oct-15 20:45 161 1 gusting 6 3.9
2019-Oct-15 20:39 151 2 gusting 5 3.9
2019-Oct-15 20:35 152 1 gusting 6 3.9
2019-Oct-15 20:30 145 3 gusting 6 3.9
2019-Oct-15 20:25 143 3 gusting 8 3.9
2019-Oct-15 20:19 155 3 gusting 8 3.9
2019-Oct-15 20:15 133 3 gusting 6 3.9
2019-Oct-15 20:09 157 0 gusting 5 3.9
2019-Oct-15 20:05 152 1 gusting 7 3.9
2019-Oct-15 20:00 143 4 gusting 8 3.9
2019-Oct-15 19:55 158 4 gusting 9 3.9
2019-Oct-15 19:49 158 5 gusting 9 3.9
2019-Oct-15 19:45 143 5 gusting 8 3.9
2019-Oct-15 19:40 157 4 gusting 8 3.9
2019-Oct-15 19:34 136 5 gusting 7 3.9
2019-Oct-15 19:30 159 3 gusting 8 3.9
2019-Oct-15 19:25 145 4 gusting 9 3.9
2019-Oct-15 19:19 198 4 gusting 9 3.9
2019-Oct-15 19:15 168 4 gusting 9 3.9
2019-Oct-15 19:10 163 5 gusting 9 3.9
2019-Oct-15 19:05 164 5 gusting 9 3.9
2019-Oct-15 18:59 164 4 gusting 8 3.9
2019-Oct-15 18:55 161 5 gusting 8 3.9
2019-Oct-15 18:50 172 5 gusting 8 3.9
2019-Oct-15 18:44 170 4 gusting 10 3.9
2019-Oct-15 18:40 164 6 gusting 10 3.9
2019-Oct-15 18:35 156 3 gusting 7 3.9
2019-Oct-15 18:30 156 4 gusting 6 3.9
2019-Oct-15 18:25 155 3 gusting 8 3.9
2019-Oct-15 18:20 155 4 gusting 8 3.9
2019-Oct-15 18:15 163 3 gusting 7 3.9
2019-Oct-15 18:10 164 3 gusting 7 3.9
2019-Oct-15 18:04 154 4 gusting 7 3.9
2019-Oct-15 17:59 155 4 gusting 7 3.9
2019-Oct-15 17:55 141 4 gusting 8 3.9
2019-Oct-15 17:50 150 2 gusting 8 3.9
2019-Oct-15 17:45 132 5 gusting 8 3.9
2019-Oct-15 17:40 157 4 gusting 7 3.9
2019-Oct-15 17:35 155 4 gusting 7 3.9
2019-Oct-15 17:30 159 4 gusting 9 3.9
2019-Oct-15 17:25 158 6 gusting 9 3.9
2019-Oct-15 17:20 155 5 gusting 8 3.9
2019-Oct-15 17:15 141 4 gusting 8 3.9
2019-Oct-15 17:10 155 4 gusting 8 3.9
2019-Oct-15 17:05 155 5 gusting 8 3.9
2019-Oct-15 17:00 166 5 gusting 8 3.9
2019-Oct-15 16:54 154 5 gusting 8 3.9
2019-Oct-15 16:50 155 5 gusting 7 3.9
2019-Oct-15 16:45 155 4 gusting 8 3.9
2019-Oct-15 16:39 154 4 gusting 9 3.9
2019-Oct-15 16:35 166 4 gusting 9 3.9
2019-Oct-15 16:30 150 5 gusting 8 3.9
2019-Oct-15 16:25 151 5 gusting 8 3.9
2019-Oct-15 16:20 157 4 gusting 7 3.9
2019-Oct-15 16:15 149 3 gusting 6 3.9
2019-Oct-15 16:10 153 3 gusting 5 3.9
2019-Oct-15 16:04 153 2 gusting 6 3.9
2019-Oct-15 16:00 153 2 gusting 6 3.9
2019-Oct-15 15:55 157 4 gusting 7 3.3
2019-Oct-15 15:49 153 2 gusting 7 3.3
2019-Oct-15 15:45 147 3 gusting 6 3.3
2019-Oct-15 15:40 149 2 gusting 7 3.3
2019-Oct-15 15:35 146 3 gusting 7 3.3
2019-Oct-15 15:25 147 2 gusting 6 3.3
2019-Oct-15 15:20 150 3 gusting 6 3.3
2019-Oct-15 15:15 151 3.3
2019-Oct-15 15:05 151 4 gusting 6 3.3
2019-Oct-15 15:00 149 3 gusting 6 3.3
2019-Oct-15 14:55 147 3 gusting 6 3.3
2019-Oct-15 14:49 154 4 gusting 7 3.3
2019-Oct-15 14:45 157 3 gusting 7 3.3
2019-Oct-15 14:40 153 3 gusting 6 3.3
2019-Oct-15 14:34 149 2 gusting 6 3.3
2019-Oct-15 14:30 155 3 gusting 7 3.3
2019-Oct-15 14:25 154 4 gusting 7 3.3
2019-Oct-15 14:19 147 2 gusting 6 3.3
2019-Oct-15 14:15 153 4 gusting 7 3.3
2019-Oct-15 14:09 150 4 gusting 7 3.3
2019-Oct-15 14:05 145 3 gusting 6 3.3
2019-Oct-15 14:00 143 3 gusting 8 3.3
2019-Oct-15 13:55 143 3 gusting 8 3.3
2019-Oct-15 13:50 159 2 gusting 6 3.3
2019-Oct-15 13:45 153 4 gusting 7 3.3
2019-Oct-15 13:40 151 4 gusting 7 3.3
2019-Oct-15 13:35 143 4 gusting 6 3.3
2019-Oct-15 13:30 147 2 gusting 7 3.3
2019-Oct-15 13:25 132 2 gusting 6 3.3
2019-Oct-15 13:20 135 2 gusting 6 3.3
2019-Oct-15 13:15 138 2 gusting 7 3.3
2019-Oct-15 13:09 141 3 gusting 7 3.3
2019-Oct-15 13:05 149 3 gusting 7 3.3
2019-Oct-15 13:00 153 4 gusting 8 3.3
2019-Oct-15 12:54 154 4 gusting 8 3.3
2019-Oct-15 12:50 147 3 gusting 6 3.3
2019-Oct-15 12:45 155 4 gusting 6 3.3
2019-Oct-15 12:39 149 3 gusting 7 3.3
2019-Oct-15 12:35 136 4 gusting 7 2.8
2019-Oct-15 12:30 147 3 gusting 7 2.8
2019-Oct-15 12:24 162 3 gusting 9 2.8
2019-Oct-15 12:20 141 4 gusting 7 3.3
2019-Oct-15 12:15 160 4 gusting 7 2.8
2019-Oct-15 12:09 149 3 gusting 7 2.8
2019-Oct-15 12:05 153 4 gusting 7 2.8
2019-Oct-15 12:00 151 2 gusting 7 2.8
2019-Oct-15 11:55 151 4 gusting 7 2.8
2019-Oct-15 11:49 151 5 gusting 7 2.8
2019-Oct-15 11:45 151 1 gusting 7 2.8
2019-Oct-15 11:40 149 5 gusting 8 2.8
2019-Oct-15 11:35 143 6 gusting 9 2.8
2019-Oct-15 11:30 139 6 gusting 9 2.8
2019-Oct-15 11:25 153 4 gusting 7 2.8
2019-Oct-15 11:20 162 5 gusting 7 2.8
2019-Oct-15 11:15 147 4 gusting 9 2.8
2019-Oct-15 11:05 153 3 gusting 7 2.8
2019-Oct-15 11:00 151 3 gusting 8 2.8
2019-Oct-15 10:55 164 6 gusting 8 2.8
2019-Oct-15 10:50 157 5 gusting 8 2.8
2019-Oct-15 10:45 149 4 gusting 7 2.8
2019-Oct-15 10:39 161 4 gusting 8 2.8
2019-Oct-15 10:35 175 4 gusting 6 2.8
2019-Oct-15 10:30 170 3 gusting 6 2.2
2019-Oct-15 10:25 159 3 gusting 6 2.2
2019-Oct-15 10:19 154 2 gusting 7 2.2
2019-Oct-15 10:15 161 4 gusting 7 2.2
2019-Oct-15 10:10 148 5 gusting 7 2.2
2019-Oct-15 10:00 147 4 gusting 6 2.2
2019-Oct-15 09:55 155 3 gusting 6 1.7
2019-Oct-15 09:50 155 4 gusting 6 1.7
2019-Oct-15 09:44 155 3 gusting 5 1.7
2019-Oct-15 09:40 164 1 gusting 5 1.1
2019-Oct-15 09:35 155 3 gusting 5 1.1
2019-Oct-15 09:30 151 2 gusting 5 0.6
2019-Oct-15 09:24 153 2 gusting 5 0.6
2019-Oct-15 09:20 154 3 gusting 5 0.6
2019-Oct-15 09:15 157 3 gusting 6 0.6
2019-Oct-15 09:10 149 3 gusting 6 -0.0
2019-Oct-15 09:05 155 3 gusting 6 -0.0
2019-Oct-15 09:00 155 2 gusting 5 -0.0
2019-Oct-15 08:54 156 3 gusting 5 -0.0
2019-Oct-15 08:50 158 2 gusting 4 -0.0
2019-Oct-15 08:45 161 2 gusting 4 -0.0
2019-Oct-15 08:39 166 3 gusting 6 -0.0
2019-Oct-15 08:35 164 2 gusting 6 -0.0
2019-Oct-15 08:30 170 0 gusting 5 -0.0
2019-Oct-15 08:24 164 1 gusting 5 -0.0
2019-Oct-15 08:20 155 2 gusting 5 -0.0
2019-Oct-15 08:15 159 2 gusting 4 -0.0
2019-Oct-15 08:09 156 2 gusting 5 -0.0
2019-Oct-15 08:05 162 2 gusting 6 -0.0
2019-Oct-15 08:00 151 3 gusting 6 -0.0
2019-Oct-15 07:55 159 2 gusting 6 -0.6
2019-Oct-15 07:49 155 3 gusting 6 -0.6
2019-Oct-15 07:45 153 3 gusting 6 -0.6
2019-Oct-15 07:40 152 2 gusting 6 -0.6
2019-Oct-15 07:35 146 2 gusting 4 -1.1
2019-Oct-15 07:30 148 1 gusting 2 -1.1
2019-Oct-15 07:25 148 -1.1
2019-Oct-15 07:19 148 0 gusting 4 -1.1
2019-Oct-15 07:15 147 1 gusting 4 -1.7
2019-Oct-15 07:09 146 1 gusting 3 -1.7
2019-Oct-15 07:05 147 2 gusting 3 -1.7
2019-Oct-15 07:00 146 1 gusting 3 -1.7
2019-Oct-15 06:55 146 1 gusting 3 -1.7
2019-Oct-15 06:49 147 0 gusting 3 -2.2
2019-Oct-15 06:45 147 -2.2
2019-Oct-15 06:40 147 0 gusting 3 -2.2
2019-Oct-15 06:35 147 0 gusting 3 -2.2
2019-Oct-15 06:30 147 1 gusting 3 -2.2
2019-Oct-15 06:20 147 -2.2
2019-Oct-15 06:15 147 -2.2
2019-Oct-15 06:10 147 -2.2
2019-Oct-15 06:05 148 -2.2
2019-Oct-15 06:00 148 -2.2
2019-Oct-15 05:55 148 -2.2
2019-Oct-15 05:49 148 -2.2
2019-Oct-15 05:45 148 -2.2
2019-Oct-15 05:40 145 0 gusting 3 -2.2
2019-Oct-15 05:35 145 -2.2
2019-Oct-15 05:30 149 1 gusting 3 -2.2
2019-Oct-15 05:20 149 1 gusting 3 -2.2
2019-Oct-15 05:15 151 -2.2
2019-Oct-15 05:10 151 -2.2
2019-Oct-15 05:05 151 -2.2
2019-Oct-15 05:00 151 -2.2
2019-Oct-15 04:55 151 1 gusting 3 -2.2
2019-Oct-15 04:45 151 -2.2
2019-Oct-15 04:40 152 0 gusting 3 -2.2
2019-Oct-15 04:35 153 -2.2
2019-Oct-15 04:30 151 -2.2
2019-Oct-15 04:24 152 2 gusting 4 -2.2
2019-Oct-15 04:20 154 0 gusting 3 -2.2
2019-Oct-15 04:15 153 -2.2
2019-Oct-15 04:10 153 -2.2
2019-Oct-15 04:05 154 -2.2
2019-Oct-15 04:00 154 -2.2
2019-Oct-15 03:55 157 -2.2
2019-Oct-15 03:45 160 -2.2
2019-Oct-15 03:40 164 -2.2
2019-Oct-15 03:35 164 1 gusting 3 -2.2
2019-Oct-15 03:30 165 1 gusting 3 -2.2
2019-Oct-15 03:25 165 2 gusting 4 -2.2
2019-Oct-15 03:20 159 2 gusting 6 -2.2
2019-Oct-15 03:09 160 0 gusting 2 -2.2
2019-Oct-15 03:05 160 1 gusting 2 -2.2
2019-Oct-15 03:00 160 1 gusting 3 -2.2
2019-Oct-15 02:55 160 1 gusting 3 -2.2
2019-Oct-15 02:50 160 2 gusting 3 -2.2
2019-Oct-15 02:45 160 -2.2
2019-Oct-15 02:40 160 -2.2
2019-Oct-15 02:35 160 0 gusting 2 -2.2
2019-Oct-15 02:30 160 1 gusting 2 -2.2
2019-Oct-15 02:20 160 1 gusting 3 -2.2
2019-Oct-15 02:15 160 1 gusting 3 -2.2
2019-Oct-15 02:10 161 -2.2
2019-Oct-15 02:05 161 1 gusting 2 -2.2
2019-Oct-15 02:00 161 0 gusting 3 -2.2
2019-Oct-15 01:55 161 1 gusting 3 -2.2
2019-Oct-15 01:50 157 1 gusting 3 -2.2
2019-Oct-15 01:45 155 0 gusting 2 -2.2
2019-Oct-15 01:35 155 -2.2
2019-Oct-15 01:30 155 -2.2
2019-Oct-15 01:25 155 -2.2
2019-Oct-15 01:20 153 -2.2
2019-Oct-15 01:09 153 -2.2
2019-Oct-15 01:05 153 0 gusting 2 -2.2
2019-Oct-15 01:00 153 0 gusting 2 -2.2
2019-Oct-15 00:55 153 0 gusting 3 -2.2
2019-Oct-15 00:50 153 1 gusting 3 -2.2
2019-Oct-15 00:45 153 1 gusting 2 -2.2
2019-Oct-15 00:40 153 1 gusting 2 -2.2
2019-Oct-15 00:35 153 1 gusting 2 -2.2
2019-Oct-15 00:30 153 0 gusting 2 -1.7
2019-Oct-15 00:19 153 1 gusting 2 -1.7
2019-Oct-15 00:15 153 0 gusting 2 -1.7
2019-Oct-15 00:09 153 -1.7
2019-Oct-15 00:05 153 1 gusting 2 -1.7
2019-Oct-15 00:00 153 0 gusting 2 -1.7
2019-Oct-14 23:55 153 0 gusting 2 -1.7
2019-Oct-14 23:49 153 0 gusting 2 -1.7
2019-Oct-14 23:45 153 -1.7
2019-Oct-14 23:40 153 1 gusting 2 -1.7
2019-Oct-14 23:30 153 -1.7
2019-Oct-14 23:25 153 -1.7
2019-Oct-14 23:20 153 -1.7
2019-Oct-14 23:14 153 0 gusting 2 -1.7
2019-Oct-14 23:10 286 0 gusting 2 -1.7
2019-Oct-14 23:05 286 -1.7
2019-Oct-14 23:00 286 -1.7
2019-Oct-14 22:55 286 -1.1
2019-Oct-14 22:50 286 -1.1
2019-Oct-14 22:45 286 -1.1
2019-Oct-14 22:40 286 -1.1
2019-Oct-14 22:35 286 -1.1
2019-Oct-14 22:30 286 -1.1
2019-Oct-14 22:24 286 0 gusting 2 -1.1
2019-Oct-14 22:20 288 -1.1
2019-Oct-14 22:15 288 -0.6
2019-Oct-14 22:09 288 -0.6
2019-Oct-14 22:05 288 -0.6
2019-Oct-14 22:00 288 0 gusting 1 -0.6
2019-Oct-14 21:55 288 -0.6
2019-Oct-14 21:49 288 -0.6
2019-Oct-14 21:45 288 -0.6
2019-Oct-14 21:40 288 0 gusting 1 -0.6
2019-Oct-14 21:30 288 -0.6
2019-Oct-14 21:25 288 -0.6
2019-Oct-14 21:20 288 -0.6
2019-Oct-14 21:10 288 -0.6
2019-Oct-14 21:00 288 -0.6
2019-Oct-14 20:55 288 -0.6
2019-Oct-14 20:50 288 -0.6
2019-Oct-14 20:45 288 -0.6
2019-Oct-14 20:40 288 -0.6
2019-Oct-14 20:35 288 -0.6
2019-Oct-14 20:29 288 -0.6
2019-Oct-14 20:25 288 -0.6
2019-Oct-14 20:19 288 -0.6
2019-Oct-14 20:15 288 -0.6
2019-Oct-14 20:10 288 -0.6
2019-Oct-14 20:04 288 -0.6